Sacramento, CA

11:06 AM PDT on July 27, 2016 (GMT -0700)
Sacramento Executive

Weather History for KSAC - September, 2013

Change the Weather History Date:

Sunday, September 29, 2013

  Actual Average Record
Temperature  
Mean Temperature 69 °F -  
Max Temperature 79 °F 84 °F 102 °F (1966)
Min Temperature 58 °F 54 °F 46 °F (1986)
Degree Days  
Heating Degree Days 0    
Cooling Degree Days 4    
Growing Degree Days 18 (Base 50)    
Moisture  
Dew Point 55 °F    
Average Humidity 64    
Maximum Humidity 80    
Minimum Humidity 47    
Precipitation  
Precipitation 0.00 in 0.02 in 0.70 in (1957)
Month to date precipitation 0.59 0.27  
Year to date precipitation 4.50 12.22  
Since 1 July precipitation 0.59  
Sea Level Pressure  
Sea Level Pressure 30.05 in    
Wind  
Wind Speed 8 mph (SSW)    
Max Wind Speed 15 mph    
Max Gust Speed 20 mph    
Visibility 10 miles    
Events      
T = Trace of Precipitation, MM = Missing Value Source: NWS Daily Summary

Daily Weather History Graph

Daily Weather History Graph

Search for Another Location

Airport or City:

Trip Planner

Search our weather history database for the weather conditions in past years. The results will help you decide how hot, cold, wet, or windy it might be!

Date:

Astronomy

Sep. 29, 2013 Rise Set
Actual Time 7:00 AM PDT 6:51 PM PDT
Civil Twilight 6:33 AM PDT 7:17 PM PDT
Nautical Twilight 6:03 AM PDT 7:48 PM PDT
Astronomical Twilight 5:32 AM PDT 8:19 PM PDT
Moon 1:49 AM PDT (9/29) 3:47 PM PDT (9/29)
Length of Visible Light 12h 43m
Length of Day
11h 51m
Waning Crescent, 26% of the Moon is Illuminated
Sep 29
Waning Crescent
Oct 4
New
Oct 11
First Quarter
Oct 18
Full
Oct 26
Last Quarter

Hourly Weather History & Observations

Time (PDT) Temp. Dew Point Humidity Pressure Visibility Wind Dir Wind Speed Gust Speed Precip Events Conditions
12:53 AM 63.0 °F 53.1 °F 70% 30.04 in 10.0 mi SSW 10.4 mph 17.3 mph N/A   Clear
1:53 AM 62.1 °F 53.1 °F 72% 30.04 in 10.0 mi SSW 6.9 mph - N/A   Clear
2:53 AM 61.0 °F 53.1 °F 75% 30.04 in 10.0 mi South 5.8 mph - N/A   Clear
3:53 AM 60.1 °F 53.1 °F 78% 30.04 in 10.0 mi Calm Calm - N/A   Clear
4:53 AM 59.0 °F 52.0 °F 78% 30.04 in 10.0 mi SE 6.9 mph - N/A   Clear
5:53 AM 59.0 °F 52.0 °F 78% 30.05 in 10.0 mi South 5.8 mph - N/A   Clear
6:53 AM 59.0 °F 53.1 °F 81% 30.06 in 10.0 mi South 4.6 mph - N/A   Clear
7:53 AM 60.1 °F 54.0 °F 80% 30.06 in 10.0 mi South 5.8 mph - N/A   Clear
8:53 AM 63.0 °F 55.0 °F 75% 30.08 in 10.0 mi SSW 8.1 mph - N/A   Clear
9:53 AM 66.0 °F 55.0 °F 68% 30.09 in 10.0 mi SSW 6.9 mph - N/A   Clear
10:53 AM 71.1 °F 55.0 °F 57% 30.09 in 10.0 mi SSW 4.6 mph - N/A   Scattered Clouds
11:09 AM 71.6 °F 55.4 °F 57% 30.08 in 10.0 mi SW 9.2 mph - N/A   Partly Cloudy
11:53 AM 73.9 °F 55.9 °F 53% 30.08 in 10.0 mi SW 10.4 mph - N/A   Clear
12:53 PM 73.9 °F 55.0 °F 52% 30.08 in 10.0 mi SW 12.7 mph - N/A   Clear
1:53 PM 77.0 °F 55.0 °F 47% 30.06 in 10.0 mi SW 12.7 mph - N/A   Clear
2:53 PM 75.9 °F 55.0 °F 48% 30.05 in 10.0 mi SW 9.2 mph - N/A   Clear
3:53 PM 77.0 °F 55.0 °F 47% 30.04 in 10.0 mi SSW 9.2 mph - N/A   Partly Cloudy
4:53 PM 73.9 °F 55.0 °F 52% 30.03 in 10.0 mi SW 11.5 mph - N/A   Clear
5:53 PM 75.0 °F 55.0 °F 50% 30.02 in 10.0 mi SW 10.4 mph - N/A   Clear
6:53 PM 71.1 °F 55.9 °F 59% 30.02 in 10.0 mi SSW 3.5 mph - N/A   Clear
7:53 PM 69.1 °F 57.0 °F 65% 30.04 in 10.0 mi WSW 8.1 mph - N/A   Clear
8:53 PM 66.9 °F 57.0 °F 70% 30.06 in 10.0 mi WSW 11.5 mph - N/A   Clear
9:53 PM 66.0 °F 57.0 °F 73% 30.06 in 10.0 mi SW 9.2 mph - N/A   Clear
10:53 PM 64.9 °F 57.0 °F 75% 30.06 in 10.0 mi Calm Calm - N/A   Clear
11:53 PM 63.0 °F 57.0 °F 81% 30.06 in 10.0 mi SSW 5.8 mph - N/A   Clear